This is the latest recevied weather packets stored in our database for station/object DB0OHA-10. If no packets are shown the sender has not sent any weather packets the latest 10 day(s).
| Time | Temp. | Humidity | Pressure | Rain* | Wind** | Luminosity | Snow |
|---|---|---|---|---|---|---|---|
| 1777672817 | 15.56° C | 54% | 1023.6 hPa | 0 mm | - | 0 W/m² | - |
| 1777671917 | 15.56° C | 54% | 1023.6 hPa | 0 mm | - | 0 W/m² | - |
| 1777671017 | 15.56° C | 53% | 1023.5 hPa | 0 mm | - | 0 W/m² | - |
| 1777670117 | 15.56° C | 54% | 1023.7 hPa | 0 mm | - | 0 W/m² | - |
| 1777669217 | 15° C | 55% | 1023.7 hPa | 0 mm | - | 0 W/m² | - |
| 1777668317 | 15° C | 55% | 1023.8 hPa | 0 mm | - | 0 W/m² | - |
| 1777667417 | 15° C | 55% | 1023.9 hPa | 0 mm | - | 0 W/m² | - |
| 1777666517 | 15.56° C | 54% | 1023.8 hPa | 0 mm | - | 0 W/m² | - |
| 1777665622 | 15.56° C | 53% | 1023.8 hPa | 0 mm | - | 0 W/m² | - |
| 1777665617 | 15.56° C | 53% | 1023.8 hPa | 0 mm | - | 0 W/m² | - |
| 1777664717 | 15.56° C | 54% | 1023.9 hPa | 0 mm | - | 0 W/m² | - |
| 1777663817 | 15.56° C | 54% | 1024 hPa | 0 mm | - | 0 W/m² | - |
| 1777662917 | 16.11° C | 52% | 1024.1 hPa | 0 mm | - | 0 W/m² | - |
| 1777662017 | 16.67° C | 50% | 1024.1 hPa | 0 mm | - | 0 W/m² | - |
| 1777661117 | 17.22° C | 49% | 1024 hPa | 0 mm | - | 0 W/m² | - |
| 1777660217 | 17.78° C | 47% | 1023.9 hPa | 0 mm | - | 9 W/m² | - |
| 1777659317 | 18.33° C | 47% | 1024 hPa | 0 mm | - | 16 W/m² | - |
| 1777658417 | 18.89° C | 46% | 1024 hPa | 0 mm | - | 33 W/m² | - |
| 1777657517 | 19.44° C | 45% | 1023.9 hPa | 0 mm | - | 62 W/m² | - |
| 1777656617 | 20° C | 44% | 1024 hPa | 0 mm | - | 97 W/m² | - |
| 1777655717 | 20° C | 43% | 1024.1 hPa | 0 mm | - | 141 W/m² | - |
| 1777654817 | 20.56° C | 42% | 1024.3 hPa | 0 mm | - | 186 W/m² | - |
| 1777653917 | 20.56° C | 42% | 1024.3 hPa | 0 mm | - | 232 W/m² | - |
| 1777653017 | 21.11° C | 42% | 1024.4 hPa | 0 mm | - | 274 W/m² | - |
| 1777652117 | 20.56° C | 40% | 1024.6 hPa | 0 mm | - | 311 W/m² | - |
* Rain latest hour (hover to see other rain measurements)
** Current wind speed in m/s (hover to see current wind gust speed)